Change the Weather History Date:

Thursday, September 26, 2013

  Actual Average Record
Temperature  
Mean Temperature 79 °F 85 °F  
Max Temperature 87 °F 98 °F 111 °F (2010)
Min Temperature 71 °F 73 °F 52 °F (1901)
Degree Days  
Heating Degree Days 0 0  
Month to date heating degree days 0 0  
Since 1 July heating degree days 0 0  
Cooling Degree Days 14 20  
Month to date cooling degree days 638 644  
Year to date cooling degree days 4336 4097  
Growing Degree Days 29 (Base 50)    
Moisture  
Dew Point 31 °F    
Average Humidity 23    
Maximum Humidity 35    
Minimum Humidity 11    
Precipitation  
Precipitation 0.00 in 0.01 in 0.15 in (1983)
Month to date precipitation 0.51 0.47  
Year to date precipitation 2.31 2.56  
Sea Level Pressure  
Sea Level Pressure 29.66 in    
Wind  
Wind Speed 11 mph (NW)    
Max Wind Speed 22 mph    
Max Gust Speed 28 mph    
Visibility 10 miles    
Events      
T = Trace of Precipitation, MM = Missing Value Source: NWS Daily Summary

Daily Weather History Graph

Daily Weather History Graph

Search for Another Location

Airport or City:

Trip Planner

Search our weather history database for the weather conditions in past years. The results will help you decide how hot, cold, wet, or windy it might be!

Date:

Astronomy

Sep. 26, 2013 Rise Set
Actual Time 6:29 AM MST 6:29 PM MST
Civil Twilight 6:04 AM MST 6:53 PM MST
Nautical Twilight 5:36 AM MST 7:22 PM MST
Astronomical Twilight 5:07 AM MST 7:51 PM MST
Moon 11:47 PM MST (9/26) 1:08 PM MST (9/26)
Length of Visible Light 12h 48m
Length of Day
11h 59m
Waning Gibbous, 53% of the Moon is Illuminated
Sep 26
Waning Gibbous
Sep 26
Last Quarter
Oct 4
New
Oct 11
First Quarter
Oct 18
Full

Hourly Weather History & Observations

Time (MST) Temp. Dew Point Humidity Pressure Visibility Wind Dir Wind Speed Gust Speed Precip Events Conditions
12:57 AM 75.9 °F 19.0 °F 12% 29.60 in 10.0 mi NNW 8.1 mph - N/A   Clear
1:57 AM 75.0 °F 17.1 °F 11% 29.61 in 10.0 mi NNW 9.2 mph - N/A   Clear
2:57 AM 73.9 °F 21.0 °F 14% 29.60 in 10.0 mi NNW 8.1 mph - N/A   Clear
3:57 AM 73.0 °F 21.9 °F 15% 29.60 in 10.0 mi NNW 9.2 mph - N/A   Clear
4:57 AM 73.0 °F 24.1 °F 16% 29.61 in 10.0 mi NNW 12.7 mph - N/A   Clear
5:57 AM 72.0 °F 25.0 °F 17% 29.62 in 10.0 mi North 10.4 mph - N/A   Clear
6:57 AM 71.1 °F 27.0 °F 19% 29.64 in 10.0 mi Calm Calm - N/A   Clear
7:57 AM 75.0 °F 28.9 °F 18% 29.66 in 10.0 mi Variable 3.5 mph - N/A   Clear
8:57 AM 77.0 °F 28.9 °F 17% 29.67 in 10.0 mi NNW 9.2 mph - N/A   Clear
10:57 AM 81.0 °F 35.1 °F 19% 29.68 in 10.0 mi NNW 16.1 mph - N/A   Clear
11:57 AM 84.0 °F 35.1 °F 17% 29.67 in 10.0 mi NNW 15.0 mph 21.9 mph N/A   Clear
12:57 PM 86.0 °F 28.0 °F 12% 29.66 in 10.0 mi WNW 12.7 mph - N/A   Clear
1:57 PM 86.0 °F 28.0 °F 12% 29.65 in 10.0 mi NW 12.7 mph - N/A   Clear
2:57 PM 87.1 °F 30.0 °F 13% 29.64 in 10.0 mi NW 13.8 mph 20.7 mph N/A   Clear
3:57 PM 84.9 °F 30.9 °F 14% 29.65 in 10.0 mi NW 16.1 mph - N/A   Clear
4:57 PM 84.0 °F 30.9 °F 15% 29.65 in 10.0 mi NW 17.3 mph - N/A   Clear
5:57 PM 82.0 °F 33.1 °F 17% 29.67 in 10.0 mi NW 11.5 mph - N/A   Partly Cloudy
6:57 PM 80.1 °F 35.1 °F 20% 29.69 in 10.0 mi NW 10.4 mph - N/A   Clear
7:57 PM 78.1 °F 37.9 °F 24% 29.70 in 10.0 mi NW 10.4 mph - N/A   Clear
8:57 PM 75.9 °F 41.0 °F 29% 29.72 in 10.0 mi NW 12.7 mph - N/A   Clear
9:57 PM 73.9 °F 42.1 °F 32% 29.74 in 10.0 mi WNW 11.5 mph 23.0 mph N/A   Clear
10:57 PM 72.0 °F 43.0 °F 35% 29.75 in 10.0 mi WNW 13.8 mph - N/A   Clear
11:57 PM 72.0 °F 43.0 °F 35% 29.75 in 10.0 mi NW 13.8 mph - N/A   Partly Cloudy